| time (UTC) | temp F | wind direction | speed MPH | gust MPH | rain 1hr in | rain 24hr in | rain mn in | humidity % | barometer mb |
| 20260903233017 | 86 | 135 | 1.0 | 2.0 | 0.00 | 0.25 | 0.25 | 61 | 1012.5 |
| 20260903232017 | 86 | 135 | 1.0 | 3.0 | 0.00 | 0.25 | 0.25 | 60 | 1012.6 |
| 20260903231018 | 87 | 158 | 1.0 | 3.0 | 0.00 | 0.25 | 0.25 | 60 | 1012.6 |
| 20260903230018 | 87 | 113 | 1.0 | 3.0 | 0.00 | 0.25 | 0.25 | 59 | 1012.6 |
| 20260903225020 | 87 | 0.0 | 2.0 | 0.00 | 0.25 | 0.25 | 59 | 1012.7 | |
| 20260903224018 | 88 | 0.0 | 1.0 | 0.00 | 0.25 | 0.25 | 59 | 1012.8 | |
| 20260903223017 | 88 | 158 | 1.0 | 2.0 | 0.00 | 0.25 | 0.25 | 60 | 1013.0 |
| 20260903222018 | 89 | 0.0 | 2.0 | 0.00 | 0.25 | 0.25 | 59 | 1013.1 | |
| 20260903221022 | 89 | 0.0 | 1.0 | 0.00 | 0.25 | 0.25 | 59 | 1013.2 | |
| 20260903220018 | 90 | 158 | 1.0 | 2.0 | 0.00 | 0.25 | 0.25 | 57 | 1013.2 |
| 20260903215017 | 90 | 0.0 | 2.0 | 0.00 | 0.25 | 0.25 | 59 | 1013.2 | |
| 20260903214017 | 90 | 0.0 | 1.0 | 0.00 | 0.25 | 0.25 | 59 | 1013.2 | |
| 20260903213017 | 90 | 0.0 | 2.0 | 0.00 | 0.25 | 0.25 | 59 | 1013.2 | |
| 20260903212017 | 90 | 0.0 | 1.0 | 0.00 | 0.25 | 0.25 | 59 | 1013.2 | |
| 20260903211017 | 90 | 0.0 | 0.0 | 0.00 | 0.25 | 0.25 | 58 | 1013.2 | |
| 20260903210017 | 90 | 0.0 | 1.0 | 0.00 | 0.25 | 0.25 | 58 | 1013.4 | |
| 20260903205017 | 90 | 225 | 1.0 | 3.0 | 0.00 | 0.25 | 0.25 | 58 | 1013.5 |
| 20260903204017 | 90 | 0.0 | 1.0 | 0.00 | 0.25 | 0.25 | 58 | 1013.6 | |
| 20260903203017 | 89 | 293 | 1.0 | 2.0 | 0.00 | 0.25 | 0.25 | 61 | 1013.6 |
| 20260903202017 | 89 | 203 | 1.0 | 3.0 | 0.00 | 0.25 | 0.25 | 60 | 1013.7 |
| 20260903201017 | 87 | 0.0 | 0.0 | 0.00 | 0.25 | 0.25 | 67 | 1013.8 | |
| 20260903200017 | 86 | 0.0 | 1.0 | 0.00 | 0.25 | 0.25 | 66 | 1013.5 | |
| 20260903195017 | 86 | 135 | 1.0 | 2.0 | 0.00 | 0.25 | 0.25 | 66 | 1013.6 |
| 20260903194017 | 85 | 158 | 1.0 | 2.0 | 0.00 | 0.25 | 0.25 | 66 | 1013.6 |
| 20260903193017 | 84 | 0.0 | 2.0 | 0.00 | 0.25 | 0.25 | 68 | 1013.7 | |
| 20260903192017 | 84 | 0.0 | 2.0 | 0.00 | 0.25 | 0.25 | 69 | 1013.9 | |
| 20260903191017 | 83 | 113 | 1.0 | 3.0 | 0.00 | 0.25 | 0.25 | 69 | 1013.9 |
| 20260903190018 | 83 | 180 | 1.0 | 5.0 | 0.00 | 0.25 | 0.25 | 70 | 1014.0 |
| 20260903185018 | 81 | 158 | 1.0 | 4.0 | 0.00 | 0.25 | 0.25 | 73 | 1014.0 |
| 20260903184017 | 82 | 0.0 | 2.0 | 0.00 | 0.25 | 0.25 | 73 | 1014.2 | |
| 20260903183018 | 81 | 0.0 | 0.0 | 0.00 | 0.25 | 0.25 | 76 | 1014.3 | |
| 20260903182018 | 81 | 0.0 | 0.0 | 0.00 | 0.25 | 0.25 | 75 | 1014.4 | |
| 20260903181017 | 80 | 0.0 | 1.0 | 0.00 | 0.25 | 0.25 | 79 | 1014.5 | |
| 20260903180017 | 79 | 0.0 | 1.0 | 0.00 | 0.25 | 0.25 | 83 | 1014.8 | |
| 20260903175017 | 78 | 0.0 | 2.0 | 0.00 | 0.25 | 0.25 | 81 | 1015.0 | |
| 20260903174017 | 78 | 0.0 | 1.0 | 0.00 | 0.25 | 0.25 | 83 | 1015.1 | |
| 20260903173017 | 77 | 23 | 1.0 | 3.0 | 0.00 | 0.25 | 0.25 | 86 | 1015.0 |
| 20260903172017 | 77 | 23 | 1.0 | 3.0 | 0.00 | 0.25 | 0.25 | 88 | 1015.2 |
| 20260903171017 | 76 | 68 | 1.0 | 4.0 | 0.00 | 0.25 | 0.25 | 90 | 1015.3 |
| 20260903170017 | 76 | 0.0 | 2.0 | 0.00 | 0.25 | 0.25 | 89 | 1015.4 | |
| 20260903165017 | 75 | 0.0 | 2.0 | 0.02 | 0.25 | 0.25 | 88 | 1015.6 | |
| 20260903164017 | 76 | 23 | 1.0 | 6.0 | 0.11 | 0.25 | 0.25 | 88 | 1015.5 |
| 20260903163017 | 77 | 45 | 1.0 | 2.0 | 0.25 | 0.25 | 0.25 | 88 | 1015.5 |
| 20260903162017 | 77 | 0.0 | 2.0 | 0.25 | 0.25 | 0.25 | 89 | 1015.3 | |
| 20260903161017 | 77 | 0.0 | 3.0 | 0.25 | 0.25 | 0.25 | 88 | 1015.2 | |
| 20260903160017 | 77 | 0 | 1.0 | 2.0 | 0.25 | 0.25 | 0.25 | 86 | 1015.2 |
| 20260903155017 | 78 | 315 | 1.0 | 3.0 | 0.23 | 0.23 | 0.23 | 83 | 1015.3 |
| 20260903154017 | 81 | 0 | 2.0 | 6.0 | 0.14 | 0.14 | 0.14 | 78 | 1015.2 |
| 20260903153017 | 84 | 315 | 2.0 | 4.0 | 0.00 | 0.00 | 0.00 | 71 | 1015.3 |
| 20260903152017 | 85 | 0.0 | 1.0 | 0.00 | 0.00 | 0.00 | 72 | 1014.5 | |
| 20260903151018 | 85 | 203 | 1.0 | 3.0 | 0.00 | 0.00 | 0.00 | 70 | 1014.1 |
| 20260903150017 | 85 | 270 | 1.0 | 3.0 | 0.00 | 0.00 | 0.00 | 71 | 1014.0 |
| 20260903145017 | 84 | 0.0 | 2.0 | 0.00 | 0.00 | 0.00 | 73 | 1013.9 | |
| 20260903144017 | 84 | 203 | 1.0 | 4.0 | 0.00 | 0.00 | 0.00 | 74 | 1013.9 |
| 20260903143017 | 83 | 225 | 1.0 | 5.0 | 0.00 | 0.00 | 0.00 | 73 | 1013.8 |
| 20260903142017 | 83 | 203 | 1.0 | 5.0 | 0.00 | 0.00 | 0.00 | 72 | 1013.8 |
| 20260903141017 | 83 | 203 | 2.0 | 4.0 | 0.00 | 0.00 | 0.00 | 72 | 1013.9 |
| 20260903140017 | 83 | 225 | 2.0 | 4.0 | 0.00 | 0.00 | 0.00 | 73 | 1013.9 |
| 20260903135017 | 82 | 180 | 2.0 | 6.0 | 0.00 | 0.00 | 0.00 | 73 | 1013.8 |
| 20260903134017 | 82 | 203 | 2.0 | 5.0 | 0.00 | 0.00 | 0.00 | 74 | 1013.8 |
| 20260903133017 | 81 | 203 | 3.0 | 7.0 | 0.00 | 0.00 | 0.00 | 75 | 1013.7 |
| 20260903132017 | 81 | 225 | 2.0 | 5.0 | 0.00 | 0.00 | 0.00 | 76 | 1013.8 |
| 20260903131018 | 80 | 225 | 2.0 | 4.0 | 0.00 | 0.00 | 0.00 | 76 | 1013.8 |
| 20260903130017 | 80 | 225 | 2.0 | 5.0 | 0.00 | 0.00 | 0.00 | 77 | 1013.8 |
| 20260903125017 | 79 | 225 | 2.0 | 5.0 | 0.00 | 0.00 | 0.00 | 77 | 1013.9 |
| 20260903124017 | 79 | 225 | 2.0 | 5.0 | 0.00 | 0.00 | 0.00 | 78 | 1014.0 |
| 20260903123017 | 79 | 203 | 2.0 | 4.0 | 0.00 | 0.00 | 0.00 | 79 | 1014.0 |
| 20260903122017 | 78 | 203 | 2.0 | 4.0 | 0.00 | 0.00 | 0.00 | 79 | 1014.0 |
| 20260903121017 | 78 | 203 | 2.0 | 5.0 | 0.00 | 0.00 | 0.00 | 80 | 1014.0 |
| 20260903120018 | 78 | 203 | 3.0 | 6.0 | 0.00 | 0.00 | 0.00 | 80 | 1014.0 |
| 20260903115017 | 77 | 203 | 2.0 | 5.0 | 0.00 | 0.00 | 0.00 | 81 | 1014.1 |
| 20260903114018 | 77 | 225 | 3.0 | 5.0 | 0.00 | 0.00 | 0.00 | 81 | 1014.0 |
| 20260903113017 | 77 | 225 | 2.0 | 5.0 | 0.00 | 0.00 | 0.00 | 81 | 1014.0 |
| 20260903112017 | 77 | 203 | 2.0 | 4.0 | 0.00 | 0.00 | 0.00 | 81 | 1014.0 |
| 20260903111017 | 77 | 203 | 2.0 | 4.0 | 0.00 | 0.00 | 0.00 | 81 | 1013.9 |
| 20260903110017 | 77 | 203 | 2.0 | 6.0 | 0.00 | 0.00 | 0.00 | 82 | 1013.9 |
| 20260903105017 | 77 | 203 | 2.0 | 6.0 | 0.00 | 0.00 | 0.00 | 82 | 1013.8 |
| 20260903104018 | 77 | 225 | 1.0 | 4.0 | 0.00 | 0.00 | 0.00 | 82 | 1013.9 |
| 20260903103017 | 77 | 225 | 2.0 | 6.0 | 0.00 | 0.00 | 0.00 | 83 | 1014.0 |
| 20260903102018 | 77 | 225 | 1.0 | 3.0 | 0.00 | 0.00 | 0.00 | 83 | 1013.9 |
| 20260903101017 | 78 | 0.0 | 2.0 | 0.00 | 0.00 | 0.00 | 83 | 1013.8 | |
| 20260903100017 | 78 | 0.0 | 1.0 | 0.00 | 0.00 | 0.00 | 82 | 1013.8 | |
| 20260903095017 | 78 | 225 | 1.0 | 2.0 | 0.00 | 0.00 | 0.00 | 82 | 1013.8 |
| 20260903094017 | 78 | 0.0 | 3.0 | 0.00 | 0.00 | 0.00 | 82 | 1013.8 | |
| 20260903093017 | 78 | 0.0 | 1.0 | 0.00 | 0.00 | 0.00 | 81 | 1013.8 | |
| 20260903092018 | 79 | 0.0 | 1.0 | 0.00 | 0.00 | 0.00 | 81 | 1013.9 | |
| 20260903091017 | 79 | 0.0 | 1.0 | 0.00 | 0.00 | 0.00 | 81 | 1013.9 | |
| 20260903090017 | 79 | 0.0 | 2.0 | 0.00 | 0.00 | 0.00 | 81 | 1013.9 | |
| 20260903085017 | 79 | 0.0 | 0.0 | 0.00 | 0.00 | 0.00 | 81 | 1013.9 | |
| 20260903084017 | 79 | 0.0 | 2.0 | 0.00 | 0.00 | 0.00 | 80 | 1013.7 | |
| 20260903083017 | 79 | 0.0 | 2.0 | 0.00 | 0.00 | 0.00 | 81 | 1013.8 | |
| 20260903082017 | 79 | 0.0 | 2.0 | 0.00 | 0.00 | 0.00 | 81 | 1013.7 | |
| 20260903081017 | 79 | 0.0 | 1.0 | 0.00 | 0.00 | 0.00 | 81 | 1013.6 | |
| 20260903080017 | 79 | 225 | 1.0 | 3.0 | 0.00 | 0.00 | 0.00 | 81 | 1013.7 |
| 20260903075017 | 79 | 225 | 1.0 | 3.0 | 0.00 | 0.00 | 0.00 | 81 | 1013.6 |
| 20260903074017 | 79 | 203 | 1.0 | 2.0 | 0.00 | 0.00 | 0.00 | 81 | 1013.6 |
| 20260903073017 | 79 | 225 | 2.0 | 4.0 | 0.00 | 0.00 | 0.00 | 81 | 1013.7 |
| 20260903072017 | 80 | 203 | 1.0 | 4.0 | 0.00 | 0.00 | 0.00 | 81 | 1013.7 |
| 20260903071017 | 80 | 203 | 1.0 | 3.0 | 0.00 | 0.00 | 0.00 | 81 | 1013.8 |
| 20260903070017 | 80 | 203 | 2.0 | 3.0 | 0.00 | 0.00 | 0.00 | 81 | 1013.7 |
| 20260903065017 | 80 | 225 | 1.0 | 3.0 | 0.00 | 0.00 | 0.00 | 80 | 1013.8 |
| 20260903064017 | 80 | 203 | 1.0 | 2.0 | 0.00 | 0.00 | 0.00 | 80 | 1013.8 |
| 20260903063017 | 80 | 203 | 1.0 | 2.0 | 0.00 | 0.00 | 0.00 | 80 | 1013.8 |
| 20260903062017 | 80 | 203 | 1.0 | 3.0 | 0.00 | 0.00 | 0.00 | 80 | 1013.8 |
| 20260903061017 | 81 | 225 | 1.0 | 3.0 | 0.00 | 0.00 | 0.00 | 80 | 1013.9 |
| 20260903060017 | 81 | 0.0 | 1.0 | 0.00 | 0.00 | 0.00 | 80 | 1013.9 | |
| 20260903055017 | 81 | 225 | 1.0 | 4.0 | 0.00 | 0.00 | 0.00 | 80 | 1013.9 |
| 20260903054017 | 81 | 225 | 1.0 | 2.0 | 0.00 | 0.00 | 0.00 | 80 | 1013.9 |
| 20260903053017 | 81 | 0.0 | 2.0 | 0.00 | 0.00 | 0.00 | 80 | 1013.8 | |
| 20260903052017 | 81 | 0.0 | 2.0 | 0.00 | 0.00 | 0.00 | 80 | 1013.9 | |
| 20260903051017 | 81 | 0.0 | 2.0 | 0.00 | 0.00 | 0.00 | 80 | 1013.9 | |
| 20260903050017 | 81 | 203 | 1.0 | 3.0 | 0.00 | 0.00 | 0.00 | 80 | 1013.7 |
| 20260903045016 | 81 | 225 | 1.0 | 3.0 | 0.00 | 0.00 | 0.00 | 80 | 1013.6 |
| 20260903044016 | 81 | 225 | 1.0 | 3.0 | 0.00 | 0.00 | 0.00 | 80 | 1013.6 |
| 20260903043016 | 81 | 203 | 1.0 | 3.0 | 0.00 | 0.00 | 0.00 | 79 | 1013.5 |
| 20260903042016 | 81 | 225 | 1.0 | 3.0 | 0.00 | 0.00 | 0.00 | 79 | 1013.5 |
| 20260903041016 | 82 | 225 | 1.0 | 3.0 | 0.00 | 0.00 | 0.00 | 79 | 1013.6 |
| 20260903040016 | 82 | 203 | 1.0 | 2.0 | 0.00 | 0.00 | 0.00 | 79 | 1013.6 |
| 20260903035016 | 82 | 0.0 | 2.0 | 0.00 | 0.00 | 0.00 | 78 | 1013.6 | |
| 20260903034016 | 82 | 225 | 1.0 | 2.0 | 0.00 | 0.00 | 0.00 | 78 | 1013.6 |
| 20260903033016 | 82 | 0.0 | 2.0 | 0.00 | 0.00 | 0.00 | 77 | 1013.5 | |
| 20260903032016 | 83 | 225 | 1.0 | 3.0 | 0.00 | 0.00 | 0.00 | 77 | 1013.4 |
| 20260903031016 | 83 | 203 | 1.0 | 3.0 | 0.00 | 0.00 | 0.00 | 76 | 1013.5 |
| 20260903030016 | 83 | 225 | 1.0 | 2.0 | 0.00 | 0.00 | 0.00 | 76 | 1013.4 |
| 20260903025016 | 83 | 203 | 1.0 | 3.0 | 0.00 | 0.00 | 0.00 | 75 | 1013.4 |
| 20260903024016 | 83 | 0.0 | 1.0 | 0.00 | 0.00 | 0.00 | 75 | 1013.5 | |
| 20260903023016 | 83 | 203 | 1.0 | 2.0 | 0.00 | 0.00 | 0.00 | 75 | 1013.5 |
| 20260903022016 | 83 | 0.0 | 0.0 | 0.00 | 0.00 | 0.00 | 75 | 1013.4 | |
| 20260903021016 | 83 | 0.0 | 0.0 | 0.00 | 0.00 | 0.00 | 74 | 1013.4 | |
| 20260903020016 | 83 | 0.0 | 0.0 | 0.00 | 0.00 | 0.00 | 73 | 1013.2 | |
| 20260903015015 | 84 | 0.0 | 0.0 | 0.00 | 0.00 | 0.00 | 72 | 1013.2 | |
| 20260903014015 | 84 | 0.0 | 0.0 | 0.00 | 0.00 | 0.00 | 72 | 1013.1 | |
| 20260903013016 | 85 | 0.0 | 0.0 | 0.00 | 0.00 | 0.00 | 70 | 1013.0 | |
| 20260903012015 | 86 | 0.0 | 0.0 | 0.00 | 0.00 | 0.00 | 69 | 1012.9 | |
| 20260903011016 | 86 | 0.0 | 0.0 | 0.00 | 0.00 | 0.00 | 68 | 1012.9 | |
| 20260903010016 | 87 | 0.0 | 0.0 | 0.00 | 0.00 | 0.00 | 67 | 1012.8 | |
| 20260903005016 | 87 | 0.0 | 3.0 | 0.00 | 0.00 | 0.00 | 66 | 1012.6 | |
| 20260903004016 | 88 | 203 | 1.0 | 4.0 | 0.00 | 0.00 | 0.00 | 65 | 1012.5 |
| 20260903003016 | 88 | 203 | 1.0 | 4.0 | 0.00 | 0.00 | 0.00 | 65 | 1012.4 |
| 20260903002016 | 88 | 0.0 | 1.0 | 0.00 | 0.00 | 0.00 | 64 | 1012.3 | |
| 20260903001016 | 88 | 180 | 2.0 | 5.0 | 0.00 | 0.00 | 0.00 | 64 | 1012.3 |
| 20260903000016 | 89 | 225 | 3.0 | 6.0 | 0.00 | 0.00 | 0.00 | 63 | 1012.3 |
| 20260902235016 | 89 | 225 | 4.0 | 10.0 | 0.00 | 0.00 | 0.00 | 63 | 1012.3 |
| 20260902234016 | 90 | 203 | 4.0 | 9.0 | 0.00 | 0.00 | 0.00 | 62 | 1012.4 |